STARLINK-1587 (46157 NORAD) Tracking and Keplerian Element Data

This shows tracking and keplerian element data for the satellite.

Feedback or suggestion? Click here.




ElementValue
Catalog46157
NameSTARLINK-1587
Epoch Orbit182
Epoch Day330.91667824
Epoch Year2020
RAAN312.9181
Inclination52.9982
Eccentricity0.0003793
Argument of Perigee3.8824
Mean Anonmoly298.7142
Mean Motion15.62765369
Decay Rate0.00015148
L11 46157U 20057AS 20330.91667824 .00015148 00000-0 17086-3 0 9992
L22 46157 52.9982 312.9181 0003793 3.8824 298.7142 15.62765369 1826

Live tracking and technical data element details for STARLINK-1587 (NORAD 46157). STARLINK-1587 can be tracked NOW for your location showing map with azimuth and elevation plus other details from your city location.

Track the satellite on the map from your city or location and see movement details for azimuth, elevation, latitude, longitude, range, height, and movement on the map or in text.







IsCatalogInMostPopularTable: catalog: 46157, numindb: 18
Update: records affected: 1



GetName: 46157 STARLINK-1587

Hit Count: updated at: Fri, 27 Nov 2020 00:43:16 GMT